timestamp,surface_pressure_avg,surface_temp_avg,battery_voltage,lat,long
2019-07-20 00:00:00+00:00,343.1846,14.27,12.97,47.84626,-54.09684
2019-07-20 00:10:00+00:00,350.0813,14.3,12.89,47.84626,-54.09684
2019-07-20 00:20:00+00:00,353.0862,14.4,12.97,47.84626,-54.09684
2019-07-20 00:30:00+00:00,355.418,14.47,12.97,47.84626,-54.09684
2019-07-20 00:40:00+00:00,357.6896,14.5,12.97,47.84626,-54.09684
2019-07-20 00:50:00+00:00,360.2729,14.57,12.97,47.84626,-54.09684
2019-07-20 01:00:00+00:00,360.9495,14.6,12.97,47.84626,-54.09684
2019-07-20 01:10:00+00:00,361.6429,14.6,12.89,47.84626,-54.09684
2019-07-20 01:20:00+00:00,366.1479,14.6,12.97,47.84626,-54.09684
2019-07-20 01:30:00+00:00,367.8762,14.69,12.97,47.84626,-54.09684
2019-07-20 01:40:00+00:00,366.428,14.54,12.97,47.84626,-54.09684
2019-07-20 01:50:00+00:00,366.3347,14.57,12.97,47.84626,-54.09684
2019-07-20 02:00:00+00:00,367.0763,14.68,12.89,47.84626,-54.09684
2019-07-20 02:10:00+00:00,366.0579,14.7,12.81,47.84626,-54.09684
2019-07-20 02:20:00+00:00,363.8279,14.72,12.89,47.84626,-54.09684
2019-07-20 02:30:00+00:00,364.5579,14.7,12.97,47.84626,-54.09684
2019-07-20 02:40:00+00:00,364.1346,14.59,12.97,47.84626,-54.09684
2019-07-20 02:50:00+00:00,358.923,14.5,12.97,47.84626,-54.09684
2019-07-20 03:00:00+00:00,354.7463,14.58,12.89,47.84626,-54.09684
2019-07-20 03:10:00+00:00,355.5129,14.6,12.81,47.84626,-54.09684
2019-07-20 03:20:00+00:00,351.6863,14.6,12.89,47.84626,-54.09684
2019-07-20 03:30:00+00:00,343.2996,14.61,12.89,47.84626,-54.09684
2019-07-20 03:40:00+00:00,337.4963,14.66,12.97,47.84626,-54.09684
2019-07-20 03:50:00+00:00,332.098,14.7,12.97,47.84626,-54.09684
2019-07-20 04:00:00+00:00,322.028,14.7,12.89,47.84626,-54.09684
2019-07-20 04:10:00+00:00,316.088,14.7,12.81,47.84626,-54.09684
2019-07-20 04:20:00+00:00,311.7681,14.7,12.89,47.84626,-54.09684
2019-07-20 04:30:00+00:00,301.9413,14.7,12.89,47.84626,-54.09684
2019-07-20 04:40:00+00:00,288.7997,14.71,12.89,47.84626,-54.09684
2019-07-20 04:50:00+00:00,284.9414,14.78,12.89,47.84626,-54.09684
2019-07-20 05:00:00+00:00,282.363,14.8,12.89,47.84626,-54.09684
2019-07-20 05:10:00+00:00,271.4297,14.9,12.81,47.84626,-54.09684
2019-07-20 05:20:00+00:00,258.6448,14.8,12.89,47.84626,-54.09684
2019-07-20 05:30:00+00:00,253.9647,14.7,12.89,47.84626,-54.09684
2019-07-20 05:40:00+00:00,247.7997,14.8,12.89,47.84626,-54.09684
2019-07-20 05:50:00+00:00,239.2031,14.97,12.89,47.84626,-54.09684
2019-07-20 06:00:00+00:00,233.5431,15.0,12.81,47.84626,-54.09684
2019-07-20 06:10:00+00:00,229.5781,14.9,12.81,47.84626,-54.09684
2019-07-20 06:20:00+00:00,222.2847,15.02,12.89,47.84626,-54.09684
2019-07-20 06:30:00+00:00,213.9297,15.16,12.89,47.84626,-54.09684
2019-07-20 06:40:00+00:00,207.3615,15.24,12.89,47.84626,-54.09684
2019-07-20 06:50:00+00:00,203.8665,15.2,12.89,47.84626,-54.09684
2019-07-20 07:00:00+00:00,199.3031,15.18,12.81,47.84626,-54.09684
2019-07-20 07:10:00+00:00,194.5548,15.1,12.73,47.84626,-54.09684
2019-07-20 07:20:00+00:00,196.5081,15.0,12.81,47.84626,-54.09684
2019-07-20 07:30:00+00:00,197.9448,14.8,12.81,47.84626,-54.09684
2019-07-20 07:40:00+00:00,196.0832,14.8,12.81,47.84626,-54.09684
2019-07-20 07:50:00+00:00,197.3198,14.9,12.89,47.84626,-54.09684
2019-07-20 08:00:00+00:00,200.6881,14.8,12.81,47.84626,-54.09684
2019-07-20 08:10:00+00:00,203.9364,14.65,12.73,47.84626,-54.09684
2019-07-20 08:20:00+00:00,208.3964,14.66,12.81,47.84626,-54.09684
2019-07-20 08:30:00+00:00,214.2831,14.69,12.81,47.84626,-54.09684
2019-07-20 08:40:00+00:00,216.5681,14.69,12.89,47.84626,-54.09684
2019-07-20 08:50:00+00:00,222.2047,14.7,12.89,47.84626,-54.09684
2019-07-20 09:00:00+00:00,230.7614,14.7,12.89,47.84626,-54.09684
2019-07-20 09:10:00+00:00,234.1864,14.67,12.81,47.84626,-54.09684
2019-07-20 09:20:00+00:00,234.6414,14.7,12.97,47.84626,-54.09684
2019-07-20 09:30:00+00:00,239.0531,14.7,13.05,47.84626,-54.09684
2019-07-20 09:40:00+00:00,247.9948,14.7,13.13,47.84626,-54.09684
2019-07-20 09:50:00+00:00,250.6931,14.72,13.21,47.84626,-54.09684
2019-07-20 10:00:00+00:00,251.4281,14.73,13.29,47.84626,-54.09684
2019-07-20 10:10:00+00:00,253.2814,14.75,13.44,47.84626,-54.09684
2019-07-20 10:20:00+00:00,256.1731,14.72,13.68,47.84626,-54.09684
2019-07-20 10:30:00+00:00,255.923,14.73,13.76,47.84626,-54.09684
2019-07-20 10:40:00+00:00,256.6697,14.78,14.0,47.84626,-54.09684
2019-07-20 10:50:00+00:00,260.1747,14.7,14.24,47.84626,-54.09684
2019-07-20 11:00:00+00:00,265.203,14.5,14.24,47.84626,-54.09684
2019-07-20 11:10:00+00:00,270.2298,14.5,14.32,47.84626,-54.09684
2019-07-20 11:20:00+00:00,274.4814,14.5,14.32,47.84626,-54.09684
2019-07-20 11:30:00+00:00,281.723,14.4,14.56,47.84626,-54.09684
2019-07-20 11:40:00+00:00,288.9614,14.3,14.56,47.84626,-54.09684
2019-07-20 11:50:00+00:00,293.983,14.3,14.4,47.84626,-54.09684
2019-07-20 12:00:00+00:00,300.0613,14.39,14.24,47.84626,-54.09684
2019-07-20 12:10:00+00:00,308.463,14.3,14.16,47.84626,-54.09684
2019-07-20 12:20:00+00:00,316.1196,14.3,14.48,47.84626,-54.09684
2019-07-20 12:30:00+00:00,320.4046,14.35,14.4,47.84626,-54.09684
2019-07-20 12:40:00+00:00,323.4747,14.29,14.56,47.84626,-54.09684
2019-07-20 12:50:00+00:00,328.6512,13.8,14.64,47.84626,-54.09684
2019-07-20 13:00:00+00:00,332.3163,14.0,14.56,47.84626,-54.09684
2019-07-20 13:10:00+00:00,335.2163,14.0,14.48,47.84626,-54.09684
2019-07-20 13:20:00+00:00,337.3646,13.9,14.64,47.84626,-54.09684
2019-07-20 13:30:00+00:00,335.448,13.86,14.48,47.84626,-54.09684
2019-07-20 13:40:00+00:00,333.0197,13.91,14.56,47.84626,-54.09684
2019-07-20 13:50:00+00:00,331.278,13.8,14.4,47.84626,-54.09684
2019-07-20 14:00:00+00:00,329.4729,13.8,14.48,47.84626,-54.09684
2019-07-20 14:10:00+00:00,327.4296,13.82,14.48,47.84626,-54.09684
2019-07-20 14:20:00+00:00,326.6597,13.89,14.56,47.84626,-54.09684
2019-07-20 14:30:00+00:00,326.773,14.34,14.32,47.84626,-54.09684
2019-07-20 14:40:00+00:00,326.9114,14.4,14.4,47.84626,-54.09684
2019-07-20 14:50:00+00:00,325.9063,14.49,14.4,47.84626,-54.09684
2019-07-20 15:00:00+00:00,325.0247,14.4,14.32,47.84626,-54.09684
2019-07-20 15:10:00+00:00,324.2813,14.2,14.4,47.84626,-54.09684
2019-07-20 15:20:00+00:00,320.673,14.27,14.4,47.84626,-54.09684
2019-07-20 15:30:00+00:00,318.488,14.2,14.32,47.84626,-54.09684
2019-07-20 15:40:00+00:00,317.8797,14.24,14.32,47.84626,-54.09684
2019-07-20 15:50:00+00:00,314.0997,14.29,14.32,47.84626,-54.09684
2019-07-20 16:00:00+00:00,306.9564,14.3,14.32,47.84626,-54.09684
2019-07-20 16:10:00+00:00,304.188,14.37,14.32,47.84626,-54.09684
2019-07-20 16:20:00+00:00,302.9147,14.2,14.32,47.84626,-54.09684
2019-07-20 16:30:00+00:00,293.0147,14.06,14.32,47.84626,-54.09684
2019-07-20 16:40:00+00:00,283.1514,13.9,14.32,47.84626,-54.09684
2019-07-20 16:50:00+00:00,277.8147,14.0,14.24,47.84626,-54.09684
2019-07-20 17:00:00+00:00,273.6297,14.06,14.16,47.84626,-54.09684
2019-07-20 17:10:00+00:00,263.7814,14.19,14.16,47.84626,-54.09684
2019-07-20 17:20:00+00:00,255.8864,14.2,14.32,47.84626,-54.09684
2019-07-20 17:30:00+00:00,251.2264,14.2,14.32,47.84626,-54.09684
2019-07-20 17:40:00+00:00,245.3914,14.42,14.24,47.84626,-54.09684
2019-07-20 17:50:00+00:00,235.0914,14.78,14.24,47.84626,-54.09684
2019-07-20 18:00:00+00:00,228.8247,14.88,14.08,47.84626,-54.09684
2019-07-20 18:10:00+00:00,225.3581,15.2,14.0,47.84626,-54.09684
2019-07-20 18:20:00+00:00,219.0215,15.5,14.08,47.84626,-54.09684
2019-07-20 18:30:00+00:00,209.7315,15.63,14.08,47.84626,-54.09684
2019-07-20 18:40:00+00:00,206.6664,15.8,14.08,47.84626,-54.09684
2019-07-20 18:50:00+00:00,207.7281,15.9,14.08,47.84626,-54.09684
2019-07-20 19:00:00+00:00,204.2681,16.0,14.0,47.84626,-54.09684
2019-07-20 19:10:00+00:00,199.7381,16.03,13.92,47.84626,-54.09684
2019-07-20 19:20:00+00:00,196.9798,16.09,13.92,47.84626,-54.09684
2019-07-20 19:30:00+00:00,195.2465,16.12,13.92,47.84626,-54.09684
2019-07-20 19:40:00+00:00,196.5564,16.1,13.92,47.84626,-54.09684
2019-07-20 19:50:00+00:00,198.1131,16.03,13.92,47.84626,-54.09684
2019-07-20 20:00:00+00:00,199.3264,16.0,13.84,47.84626,-54.09684
2019-07-20 20:10:00+00:00,202.2997,15.8,13.76,47.84626,-54.09684
2019-07-20 20:20:00+00:00,206.0048,15.83,13.84,47.84626,-54.09684
2019-07-20 20:30:00+00:00,210.4398,15.82,13.84,47.84626,-54.09684
2019-07-20 20:40:00+00:00,216.8381,15.7,13.84,47.84626,-54.09684
2019-07-20 20:50:00+00:00,219.6064,15.73,13.84,47.84626,-54.09684
2019-07-20 21:00:00+00:00,222.4431,15.4,13.76,47.84626,-54.09684
2019-07-20 21:10:00+00:00,227.1498,15.12,13.68,47.84626,-54.09684
2019-07-20 21:20:00+00:00,232.9414,14.9,13.68,47.84626,-54.09684
2019-07-20 21:30:00+00:00,234.9165,14.7,13.76,47.84626,-54.09684
2019-07-20 21:40:00+00:00,236.2548,14.7,13.76,47.84626,-54.09684
2019-07-20 21:50:00+00:00,241.6564,14.5,13.84,47.84626,-54.09684
2019-07-20 22:00:00+00:00,248.2547,14.71,13.68,47.84626,-54.09684
2019-07-20 22:10:00+00:00,251.4232,14.2,13.6,47.84626,-54.09684
2019-07-20 22:20:00+00:00,251.9631,14.3,13.6,47.84626,-54.09684
2019-07-20 22:30:00+00:00,258.9131,14.3,13.6,47.84626,-54.09684
2019-07-20 22:40:00+00:00,264.2798,14.3,13.53,47.84626,-54.09684
2019-07-20 22:50:00+00:00,264.2914,14.45,13.53,47.84626,-54.09684
2019-07-20 23:00:00+00:00,267.2581,14.5,13.37,47.84626,-54.09684
2019-07-20 23:10:00+00:00,277.678,14.5,13.21,47.84626,-54.09684
2019-07-20 23:20:00+00:00,281.8314,14.5,13.21,47.84626,-54.09684
2019-07-20 23:30:00+00:00,282.0747,14.57,13.21,47.84626,-54.09684
2019-07-20 23:40:00+00:00,287.0347,14.5,13.21,47.84626,-54.09684
2019-07-20 23:50:00+00:00,295.673,14.48,13.13,47.84626,-54.09684
